TimeEDT,TemperatureF,Dew PointF,Humidity,Sea Level PressureIn,VisibilityMPH,Wind Direction,Wind SpeedMPH,Gust SpeedMPH,PrecipitationIn,Events,Conditions,WindDirDegrees,DateUTC
12:53 AM,82.9,75.9,79,30.02,10.0,ENE,12.7,-,N/A,,Clear,70,2013-09-05 04:53:00
1:53 AM,82.9,77.0,82,30.00,10.0,East,9.2,-,N/A,,Clear,80,2013-09-05 05:53:00
2:53 AM,82.9,75.0,77,29.98,10.0,East,13.8,-,N/A,,Partly Cloudy,100,2013-09-05 06:53:00
3:53 AM,82.9,75.9,79,29.97,10.0,East,12.7,-,N/A,,Partly Cloudy,100,2013-09-05 07:53:00
4:53 AM,82.9,75.9,79,29.98,10.0,East,11.5,-,N/A,,Partly Cloudy,90,2013-09-05 08:53:00
5:53 AM,82.9,75.9,79,29.98,10.0,East,11.5,-,N/A,,Partly Cloudy,90,2013-09-05 09:53:00
6:53 AM,82.9,75.9,79,29.99,10.0,East,12.7,-,N/A,,Scattered Clouds,100,2013-09-05 10:53:00
7:53 AM,84.0,75.9,76,30.00,10.0,East,12.7,-,N/A,,Scattered Clouds,100,2013-09-05 11:53:00
8:53 AM,86.0,75.9,72,30.01,10.0,East,13.8,-,N/A,,Scattered Clouds,100,2013-09-05 12:53:00
9:53 AM,86.0,78.1,77,30.03,10.0,East,11.5,-,N/A,,Scattered Clouds,100,2013-09-05 13:53:00
10:53 AM,88.0,77.0,70,30.04,10.0,East,12.7,-,N/A,,Scattered Clouds,90,2013-09-05 14:53:00
11:53 AM,89.1,77.0,67,30.04,10.0,East,15.0,-,N/A,,Scattered Clouds,100,2013-09-05 15:53:00
12:53 PM,89.1,78.1,70,30.04,10.0,East,13.8,-,N/A,,Scattered Clouds,90,2013-09-05 16:53:00
1:53 PM,90.0,78.1,68,30.03,10.0,ESE,15.0,-,N/A,,Scattered Clouds,110,2013-09-05 17:53:00
2:53 PM,87.1,77.0,72,30.01,10.0,East,15.0,-,N/A,,Scattered Clouds,90,2013-09-05 18:53:00
3:53 PM,87.1,77.0,72,29.99,10.0,East,13.8,-,N/A,,Mostly Cloudy,90,2013-09-05 19:53:00
4:53 PM,86.0,75.9,72,29.97,10.0,East,13.8,-,N/A,,Mostly Cloudy,100,2013-09-05 20:53:00
5:53 PM,84.9,75.9,74,29.98,10.0,East,12.7,-,N/A,,Mostly Cloudy,100,2013-09-05 21:53:00
6:53 PM,86.0,75.9,72,29.98,10.0,East,10.4,-,N/A,,Mostly Cloudy,80,2013-09-05 22:53:00
7:53 PM,84.0,75.0,74,29.98,10.0,ENE,10.4,-,N/A,,Scattered Clouds,70,2013-09-05 23:53:00
8:53 PM,84.0,75.9,76,29.99,10.0,ENE,11.5,-,N/A,,Scattered Clouds,70,2013-09-06 00:53:00
9:53 PM,84.0,75.9,76,30.01,10.0,ENE,10.4,-,N/A,,Scattered Clouds,60,2013-09-06 01:53:00
10:53 PM,84.0,75.9,76,30.02,10.0,ENE,6.9,-,N/A,,Clear,70,2013-09-06 02:53:00
11:53 PM,84.0,77.0,79,30.02,10.0,ENE,10.4,-,N/A,,Partly Cloudy,70,2013-09-06 03:53:00